This demonstration page uses our WeatherBlox Daily Observations layout. Learn more.

Left ArrowRight Arrow

41.55636, -103.73856

Hourly Observations for November 21, 2019

Temp ( °F °C ) Dew Point ( °F °C ) Humidity (%) Winds ( mph kmh ) Pressure ( in mb ) Visibility ( mi km ) Precip ( " mm )
12:58 am 00:58 Cloudy 33 0.4 26 -3.5 75 75 N 14 22 29.98 1015 10 16.0934 N/A
2:59 am 02:59 undefined N/A N/A N/A N 16 26 N/A N/A N/A
3:58 am 03:58 Mostly Cloudy with Light Snow 29 -1.9 27 -2.8 94 94 N 14 22 30.08 1019 4 6.43736 N/A
4:58 am 04:58 Mostly Cloudy with Light Snow 28 -2.1 27 -3 94 94 N 12 19 30.21 1023 5 8.0467 N/A
5:58 am 05:58 Cloudy with Light Snow 28 -2.3 25 -3.9 89 89 N 12 19 30.09 1019 10 16.0934 N/A
6:58 am 06:58 Cloudy 27 -2.8 25 -4.1 91 91 NNW 12 19 30.11 1020 10 16.0934 N/A
7:58 am 07:58 Cloudy 26 -3.1 25 -4.1 93 93 NNW 8 13 30.11 1020 10 16.0934 N/A
8:58 am 08:58 Cloudy 26 -3.3 23 -5.1 88 88 NNW 10 17 30.15 1021 10 16.0934 N/A
9:58 am 09:58 Cloudy with Light Snow 26 -3.5 23 -5.2 88 88 NNW 10 17 30.16 1022 3 4.82802 N/A
10:58 am 10:58 Cloudy with Light Snow 25 -3.9 22 -5.4 89 89 NW 10 17 30.19 1022 10 16.0934 N/A
11:58 am 11:58 Cloudy 24 -4.2 21 -6 87 87 NW 9 15 30.21 1023 10 16.0934 N/A
12:58 pm 12:58 Cloudy 24 -4.3 22 -5.8 89 89 NW 6 9 30.23 1024 10 16.0934 N/A
1:58 pm 13:58 Cloudy 24 -4.4 21 -5.9 89 89 NNW 7 11 30.22 1023 10 16.0934 N/A
2:58 pm 14:58 Cloudy 25 -4.1 21 -6.3 85 85 NNW 12 19 30.27 1025 10 16.0934 N/A
3:58 pm 15:58 Cloudy 26 -3.3 21 -6.3 80 80 N 9 15 30.28 1026 10 16.0934 N/A
4:58 pm 16:58 Cloudy 27 -2.7 20 -6.6 75 75 N 6 9 30.28 1026 10 16.0934 N/A
5:58 pm 17:58 Cloudy 28 -2.5 22 -5.8 78 78 NNE 9 15 30.27 1025 10 16.0934 N/A
6:58 pm 18:58 Cloudy 28 -2.1 23 -5.2 80 80 NNE 7 11 30.26 1025 10 16.0934 N/A
7:58 pm 19:58 Cloudy 28 -2.5 22 -5.5 80 80 N N/A 30.25 1025 10 16.0934 N/A
8:58 pm 20:58 Cloudy 28 -2 22 -5.3 78 78 N N/A 30.26 1025 10 16.0934 N/A
9:58 pm 21:58 Partly Cloudy 28 -2 21 -5.9 75 75 N N/A 30.26 1025 10 16.0934 N/A
10:58 pm 22:58 Mostly Cloudy 28 -2.1 21 -5.9 76 76 N N/A 30.27 1025 10 16.0934 N/A
11:58 pm 23:58 Mostly Cloudy 27 -2.9 21 -6.1 79 79 N N/A 30.28 1025 10 16.0934 N/A

Powered by AerisWeather